Weather History for Tucson, AZ

Change the Weather History Date:

Thursday, October 6, 2011

  Actual Average Record
Temperature  
Mean Temperature 64 °F 75 °F  
Max Temperature 73 °F 88 °F 101 °F (1987)
Min Temperature 55 °F 61 °F 39 °F (1908)
Degree Days  
Heating Degree Days 1 0  
Month to date heating degree days 1 0  
Since 1 July heating degree days 1 0  
Cooling Degree Days 0 10  
Month to date cooling degree days 70 65  
Year to date cooling degree days 3242 2972  
Growing Degree Days 14 (Base 50)    
Moisture  
Dew Point 48 °F    
Average Humidity 54    
Maximum Humidity 80    
Minimum Humidity 28    
Precipitation  
Precipitation 0.02 in 0.04 in 1.47 in (1977)
Month to date precipitation 0.06 0.21  
Year to date precipitation 9.23 9.41  
Snow  
Snow 0.00 in - - ()
Month to date snowfall 0.0  
Snow Depth 0.00 in    
Sea Level Pressure  
Sea Level Pressure 29.81 in    
Wind  
Wind Speed 8 mph (WNW)    
Max Wind Speed 25 mph    
Max Gust Speed 31 mph    
Visibility 10 miles    
Events Rain    
T = Trace of Precipitation, MM = Missing Value Source: NWS Daily Summary

Daily Weather History Graph

Daily Weather History Graph

Search for Another Location

Airport:

Trip Planner

Search our weather history database for the weather conditions in past years. The results will help you decide how hot, cold, wet, or windy it might be!

Date:

Astronomy

Oct. 06, 2011 Rise Set
Actual Time 6:20 AM MST 6:02 PM MST
Civil Twilight 5:56 AM MST 6:26 PM MST
Nautical Twilight 5:28 AM MST 6:55 PM MST
Astronomical Twilight 4:59 AM MST 7:23 PM MST
Moon 3:03 PM MST (10/6) 1:30 AM MST (10/6)
Length of Visible Light 12h 30m
Length of Day
11h 41m
Waxing Gibbous, 76% of the Moon is Illuminated
Oct 6
Waxing Gibbous
Oct 11
Full
Oct 19
Last Quarter
Oct 26
New
Nov 2
First Quarter

Hourly Weather History & Observations

Time (MST) Temp. Dew Point Humidity Pressure Visibility Wind Dir Wind Speed Gust Speed Precip Events Conditions
12:53 AM 69.1 °F 36.0 °F 30% 29.74 in 10.0 mi South 9.2 mph - N/A   Clear
1:53 AM 68.0 °F 36.0 °F 31% 29.73 in 10.0 mi South 8.1 mph - N/A   Clear
2:53 AM 66.0 °F 37.0 °F 34% 29.73 in 10.0 mi WSW 10.4 mph - N/A   Clear
3:53 AM 66.0 °F 35.1 °F 32% 29.72 in 10.0 mi WSW 11.5 mph - N/A   Clear
4:53 AM 64.0 °F 36.0 °F 35% 29.73 in 10.0 mi West 6.9 mph - N/A   Clear
5:53 AM 63.0 °F 35.1 °F 35% 29.76 in 10.0 mi West 8.1 mph - N/A   Clear
6:53 AM 64.0 °F 42.1 °F 45% 29.77 in 10.0 mi WSW 9.2 mph - N/A   Clear
7:53 AM 64.4 °F 41.0 °F 42% 29.90 in 10.0 mi SSW 10.4 mph - N/A   Overcast
8:53 AM 66.9 °F 50.0 °F 54% 29.78 in 10.0 mi SSW 15.0 mph 24.2 mph N/A   Mostly Cloudy
9:53 AM 70.0 °F 51.1 °F 51% 29.77 in 10.0 mi South 21.9 mph 29.9 mph N/A   Overcast
10:53 AM 72.0 °F 50.0 °F 46% 29.75 in 10.0 mi SW 15.0 mph 28.8 mph N/A   Overcast
11:53 AM 57.9 °F 52.0 °F 81% 29.79 in 10.0 mi NNW 17.3 mph 24.2 mph N/A   Mostly Cloudy
12:00 PM 57.2 °F 53.6 °F 88% 29.89 in 10.0 mi NNW 16.1 mph 24.2 mph 0.00 in Rain Light Rain
12:32 PM 55.4 °F 53.6 °F 94% 29.90 in 10.0 mi NNW 15.0 mph - 0.00 in Rain Light Rain
12:39 PM 55.4 °F 53.6 °F 94% 29.90 in 8.0 mi NNW 11.5 mph - 0.00 in Rain Light Rain
12:53 PM 55.9 °F 55.0 °F 97% 29.81 in 6.0 mi NW 9.2 mph - 0.00 in Rain Light Rain
1:21 PM 57.2 °F 53.6 °F 88% 29.89 in 10.0 mi NW 9.2 mph - 0.02 in   Overcast
1:32 PM 55.4 °F 55.4 °F 100% 29.89 in 10.0 mi North 9.2 mph - 0.02 in Rain Light Rain
1:40 PM 55.4 °F 53.6 °F 94% 29.89 in 10.0 mi NNW 11.5 mph - 0.02 in Rain Light Rain
1:42 PM 57.2 °F 53.6 °F 88% 29.89 in 10.0 mi NNW 13.8 mph - 0.02 in   Overcast
1:51 PM 55.4 °F 53.6 °F 94% 29.89 in 10.0 mi NNW 11.5 mph - 0.02 in   Overcast
1:53 PM 55.9 °F 52.0 °F 87% 29.81 in 10.0 mi NNW 13.8 mph - 0.02 in   Overcast
2:53 PM 57.9 °F 50.0 °F 75% 29.81 in 10.0 mi North 9.2 mph - N/A   Overcast
3:53 PM 60.1 °F 48.9 °F 67% 29.79 in 10.0 mi NNE 6.9 mph - N/A   Mostly Cloudy
4:13 PM 60.8 °F 48.2 °F 63% 29.87 in 10.0 mi Variable 5.8 mph - N/A   Mostly Cloudy
4:53 PM 62.1 °F 50.0 °F 65% 29.78 in 10.0 mi North 3.5 mph - N/A   Mostly Cloudy
5:53 PM 62.1 °F 50.0 °F 65% 29.79 in 10.0 mi Calm Calm - N/A   Mostly Cloudy
6:53 PM 62.1 °F 50.0 °F 65% 29.80 in 10.0 mi Calm Calm - N/A   Mostly Cloudy
7:53 PM 60.1 °F 51.1 °F 72% 29.82 in 10.0 mi SSW 4.6 mph - N/A   Mostly Cloudy
8:53 PM 59.0 °F 51.1 °F 75% 29.82 in 10.0 mi Calm Calm - N/A   Scattered Clouds
9:53 PM 59.0 °F 51.1 °F 75% 29.82 in 10.0 mi SSW 4.6 mph - N/A   Mostly Cloudy
10:53 PM 57.0 °F 51.1 °F 81% 29.81 in 10.0 mi Calm Calm - N/A   Scattered Clouds
11:53 PM 57.9 °F 51.1 °F 78% 29.83 in 10.0 mi Calm Calm - N/A   Mostly Cloudy